^^
North Bend WA Weather Station Historical Data
 
Daily Summary for June 25, 2022 Units:  English    Metric   Both
Daily Weekly Monthly Yearly Custom
  Current: High: Low: Average:
Temperature: 87 °F 88 °F 49 °F 61.3 °F
Dew Point: 47 °F 64 °F 47 °F 52.3 °F
Humidity: 25% 99% 25% 79%
Wind Speed: 7mph 8mph 0mph 1.6mph
Wind Gust: 17mph 20mph - -
WindSE - - SW
Pressure: 30.07 in 30.15 in 30.07 in -
Precipitation: 0 in      
Historical Graphs
 
 
Tabular Data for June 25, 2022
Time Temperature Dew Point Pressure Wind Wind Speed Wind Gust Humidity Rainfall Rate (Hourly) solar
00:04 56 °F 54 °F 30.12 in Calm     91% 0 in 0 W/m2
00:09 56 °F 54 °F 30.12 in Calm   1 mph 91% 0 in 0 W/m2
00:14 56 °F 54 °F 30.12 in E 1 mph 2 mph 92% 0 in 0 W/m2
00:19 56 °F 54 °F 30.12 in NNE 1 mph 2 mph 92% 0 in 0 W/m2
00:24 56 °F 54 °F 30.12 in Calm   2 mph 91% 0 in 0 W/m2
00:29 56 °F 54 °F 30.12 in Calm     91% 0 in 0 W/m2
00:34 56 °F 53 °F 30.12 in Calm   1 mph 91% 0 in 0 W/m2
00:39 56 °F 53 °F 30.12 in Calm   1 mph 91% 0 in 0 W/m2
00:44 56 °F 53 °F 30.12 in Calm     92% 0 in 0 W/m2
00:49 56 °F 53 °F 30.12 in Calm   2 mph 92% 0 in 0 W/m2
00:54 55 °F 53 °F 30.12 in Calm   2 mph 92% 0 in 0 W/m2
00:59 55 °F 53 °F 30.12 in WSW 1 mph 2 mph 92% 0 in 0 W/m2
01:04 55 °F 53 °F 30.12 in Calm   2 mph 93% 0 in 0 W/m2
01:09 55 °F 53 °F 30.12 in WNW 1 mph 2 mph 93% 0 in 0 W/m2
01:14 55 °F 53 °F 30.12 in NW 1 mph 4 mph 92% 0 in 0 W/m2
01:19 55 °F 53 °F 30.12 in Calm   3 mph 93% 0 in 0 W/m2
01:24 55 °F 53 °F 30.12 in WSW 1 mph 3 mph 93% 0 in 0 W/m2
01:29 55 °F 53 °F 30.12 in SSW 1 mph 2 mph 93% 0 in 0 W/m2
01:34 55 °F 53 °F 30.12 in Calm   3 mph 93% 0 in 0 W/m2
01:39 54 °F 52 °F 30.12 in NNW 1 mph 4 mph 93% 0 in 0 W/m2
01:44 54 °F 52 °F 30.12 in Calm   4 mph 93% 0 in 0 W/m2
01:49 54 °F 52 °F 30.12 in Calm   3 mph 94% 0 in 0 W/m2
01:54 54 °F 52 °F 30.12 in NNW 1 mph 4 mph 93% 0 in 0 W/m2
01:59 54 °F 52 °F 30.12 in Calm   3 mph 93% 0 in 0 W/m2
02:04 53 °F 52 °F 30.12 in Calm   2 mph 94% 0 in 0 W/m2
02:09 53 °F 52 °F 30.12 in Calm   2 mph 94% 0 in 0 W/m2
02:14 53 °F 51 °F 30.13 in NNW 1 mph 3 mph 94% 0 in 0 W/m2
02:19 53 °F 52 °F 30.13 in W 1 mph 4 mph 95% 0 in 0 W/m2
02:24 53 °F 51 °F 30.13 in Calm   3 mph 95% 0 in 0 W/m2
02:29 53 °F 51 °F 30.13 in Calm   1 mph 95% 0 in 0 W/m2
02:34 53 °F 51 °F 30.13 in N 1 mph 2 mph 95% 0 in 0 W/m2
02:39 53 °F 51 °F 30.13 in Calm   2 mph 95% 0 in 0 W/m2
02:44 52 °F 51 °F 30.13 in SW 1 mph 4 mph 95% 0 in 0 W/m2
02:49 52 °F 51 °F 30.13 in WNW 1 mph 4 mph 95% 0 in 0 W/m2
02:54 52 °F 51 °F 30.13 in NW 1 mph 3 mph 95% 0 in 0 W/m2
02:59 52 °F 51 °F 30.13 in SW 1 mph 4 mph 96% 0 in 0 W/m2
03:04 52 °F 51 °F 30.13 in Calm   3 mph 95% 0 in 0 W/m2
03:09 52 °F 51 °F 30.13 in Calm   1 mph 95% 0 in 0 W/m2
03:14 52 °F 51 °F 30.13 in W 1 mph 5 mph 95% 0 in 0 W/m2
03:19 52 °F 51 °F 30.13 in NNW 2 mph 5 mph 96% 0 in 0 W/m2
03:24 52 °F 51 °F 30.13 in W 1 mph 5 mph 96% 0 in 0 W/m2
03:29 52 °F 50 °F 30.13 in NNE 1 mph 2 mph 96% 0 in 0 W/m2
03:34 51 °F 50 °F 30.13 in WNW 1 mph 4 mph 96% 0 in 0 W/m2
03:39 51 °F 50 °F 30.13 in Calm   3 mph 96% 0 in 0 W/m2
03:44 51 °F 50 °F 30.13 in Calm     96% 0 in 0 W/m2
03:49 51 °F 50 °F 30.13 in NNW 1 mph 2 mph 96% 0 in 0 W/m2
03:54 51 °F 50 °F 30.13 in WSW 1 mph 2 mph 96% 0 in 0 W/m2
03:59 51 °F 50 °F 30.13 in Calm   2 mph 96% 0 in 0 W/m2
04:04 51 °F 50 °F 30.13 in Calm   1 mph 96% 0 in 0 W/m2
04:09 51 °F 49 °F 30.13 in Calm   1 mph 96% 0 in 0 W/m2
04:14 50 °F 49 °F 30.13 in S 1 mph 4 mph 96% 0 in 0 W/m2
04:19 50 °F 49 °F 30.13 in Calm   3 mph 96% 0 in 0 W/m2
04:24 50 °F 49 °F 30.13 in Calm   2 mph 96% 0 in 0 W/m2
04:29 50 °F 49 °F 30.13 in Calm   2 mph 96% 0 in 0 W/m2
04:34 50 °F 49 °F 30.14 in Calm   2 mph 96% 0 in 0 W/m2
04:39 50 °F 49 °F 30.14 in Calm   1 mph 96% 0 in 0 W/m2
04:44 50 °F 49 °F 30.14 in Calm   2 mph 96% 0 in 0 W/m2
04:49 50 °F 49 °F 30.14 in Calm   2 mph 96% 0 in 0 W/m2
04:54 50 °F 49 °F 30.14 in Calm   1 mph 96% 0 in 0 W/m2
04:59 50 °F 48 °F 30.14 in Calm   2 mph 96% 0 in 0 W/m2
05:04 49 °F 48 °F 30.14 in Calm   2 mph 96% 0 in 0 W/m2
05:09 49 °F 48 °F 30.14 in Calm   1 mph 96% 0 in 0 W/m2
05:14 49 °F 48 °F 30.14 in Calm   2 mph 96% 0 in 0 W/m2
05:19 49 °F 48 °F 30.14 in Calm   2 mph 96% 0 in 0 W/m2
05:24 49 °F 48 °F 30.14 in Calm   2 mph 97% 0 in 4.8 W/m2
05:29 49 °F 48 °F 30.15 in Calm   2 mph 97% 0 in 25.5 W/m2
05:34 49 °F 48 °F 30.15 in Calm   2 mph 97% 0 in 25.5 W/m2
05:39 49 °F 48 °F 30.15 in Calm   1 mph 97% 0 in 25.4 W/m2
05:44 49 °F 48 °F 30.15 in Calm     97% 0 in 35.5 W/m2
05:49 49 °F 48 °F 30.15 in Calm   4 mph 97% 0 in 35.5 W/m2
05:54 49 °F 48 °F 30.15 in SE 1 mph 3 mph 97% 0 in 45.4 W/m2
05:59 49 °F 48 °F 30.15 in Calm   2 mph 97% 0 in 45.4 W/m2
06:04 49 °F 48 °F 30.15 in NE 1 mph 2 mph 97% 0 in 45.8 W/m2
06:09 49 °F 48 °F 30.15 in NNW 1 mph 2 mph 97% 0 in 56 W/m2
06:14 49 °F 48 °F 30.15 in Calm   2 mph 97% 0 in 56.1 W/m2
06:19 49 °F 48 °F 30.15 in Calm   1 mph 97% 0 in 56.1 W/m2
06:24 49 °F 48 °F 30.14 in Calm   2 mph 97% 0 in 56.1 W/m2
06:29 49 °F 48 °F 30.14 in NW 1 mph 4 mph 97% 0 in 61.2 W/m2
06:34 49 °F 48 °F 30.14 in Calm   3 mph 97% 0 in 61.1 W/m2
06:39 49 °F 48 °F 30.14 in Calm     97% 0 in 61 W/m2
06:44 49 °F 48 °F 30.14 in Calm     97% 0 in 60.9 W/m2
06:49 49 °F 48 °F 30.14 in Calm     97% 0 in 60.9 W/m2
06:54 49 °F 48 °F 30.14 in Calm   1 mph 97% 0 in 70.8 W/m2
06:59 49 °F 48 °F 30.14 in Calm   2 mph 97% 0 in 70.6 W/m2
07:04 49 °F 49 °F 30.14 in N 1 mph 4 mph 97% 0 in 71.3 W/m2
07:09 49 °F 49 °F 30.14 in Calm   4 mph 98% 0 in 71.3 W/m2
07:14 49 °F 49 °F 30.14 in Calm   1 mph 98% 0 in 81.6 W/m2
07:19 49 °F 49 °F 30.14 in Calm   2 mph 98% 0 in 81.6 W/m2
07:24 49 °F 49 °F 30.14 in N 1 mph 4 mph 98% 0 in 142.7 W/m2
07:29 50 °F 49 °F 30.14 in N 1 mph 4 mph 98% 0 in 152.9 W/m2
07:34 50 °F 50 °F 30.14 in ENE 1 mph 4 mph 98% 0 in 163 W/m2
07:39 51 °F 51 °F 30.14 in NNW 1 mph 3 mph 98% 0 in 162.8 W/m2
07:44 52 °F 52 °F 30.14 in Calm   2 mph 99% 0 in 162.4 W/m2
07:49 53 °F 52 °F 30.14 in Calm   2 mph 99% 0 in 167.3 W/m2
07:54 53 °F 53 °F 30.14 in N 1 mph 4 mph 99% 0 in 328.2 W/m2
07:59 54 °F 54 °F 30.14 in NE 1 mph 3 mph 99% 0 in 257.2 W/m2
08:04 55 °F 55 °F 30.14 in Calm   2 mph 98% 0 in 284.9 W/m2
08:09 56 °F 55 °F 30.14 in WNW 1 mph 4 mph 97% 0 in 178.2 W/m2
08:14 57 °F 55 °F 30.14 in NNE 1 mph 4 mph 94% 0 in 178.4 W/m2
08:19 58 °F 56 °F 30.14 in NNW 1 mph 4 mph 92% 0 in 412.9 W/m2
08:24 59 °F 56 °F 30.14 in NNW 1 mph 4 mph 90% 0 in 946 W/m2
08:29 60 °F 56 °F 30.13 in NW 3 mph 5 mph 88% 0 in 946 W/m2
08:34 61 °F 57 °F 30.13 in NNW 2 mph 5 mph 85% 0 in 945 W/m2
08:39 63 °F 57 °F 30.13 in NNW 3 mph 5 mph 82% 0 in 944 W/m2
08:44 64 °F 58 °F 30.13 in NW 4 mph 7 mph 80% 0 in 942 W/m2
08:49 65 °F 59 °F 30.13 in NNW 4 mph 7 mph 80% 0 in 941 W/m2
08:54 66 °F 58 °F 30.13 in NW 3 mph 6 mph 76% 0 in 938 W/m2
08:59 67 °F 59 °F 30.13 in SW 2 mph 5 mph 77% 0 in 936 W/m2
09:04 68 °F 60 °F 30.13 in NNW 2 mph 5 mph 74% 0 in 945 W/m2
09:09 70 °F 59 °F 30.13 in NW 3 mph 7 mph 67% 0 in 946 W/m2
09:14 70 °F 59 °F 30.13 in NNE 3 mph 7 mph 67% 0 in 946 W/m2
09:19 72 °F 60 °F 30.13 in NNW 1 mph 6 mph 66% 0 in 946 W/m2
09:24 72 °F 60 °F 30.13 in NNW 3 mph 6 mph 65% 0 in 946 W/m2
09:29 73 °F 61 °F 30.12 in NNE 2 mph 6 mph 66% 0 in 946 W/m2
09:34 74 °F 61 °F 30.12 in NW 3 mph 6 mph 64% 0 in 945 W/m2
09:39 75 °F 61 °F 30.12 in W 1 mph 6 mph 61% 0 in 944 W/m2
09:44 75 °F 61 °F 30.12 in NNW 5 mph 10 mph 61% 0 in 942 W/m2
09:49 77 °F 62 °F 30.12 in E 2 mph 10 mph 60% 0 in 941 W/m2
09:54 78 °F 61 °F 30.12 in Calm   4 mph 55% 0 in 938 W/m2
09:59 78 °F 60 °F 30.12 in NW 2 mph 6 mph 54% 0 in 936 W/m2
10:04 78 °F 61 °F 30.12 in NW 2 mph 6 mph 56% 0 in 945 W/m2
10:09 79 °F 61 °F 30.12 in NW 2 mph 5 mph 54% 0 in 946 W/m2
10:14 79 °F 61 °F 30.12 in NW 2 mph 5 mph 53% 0 in 946 W/m2
10:19 79 °F 61 °F 30.12 in WNW 3 mph 6 mph 54% 0 in 946 W/m2
10:24 79 °F 62 °F 30.12 in WNW 2 mph 6 mph 54% 0 in 946 W/m2
10:29 80 °F 63 °F 30.12 in WNW 2 mph 5 mph 56% 0 in 946 W/m2
10:34 80 °F 64 °F 30.12 in WSW 3 mph 6 mph 58% 0 in 945 W/m2
10:39 80 °F 61 °F 30.11 in WNW 3 mph 10 mph 52% 0 in 943 W/m2
10:44 80 °F 60 °F 30.11 in N 5 mph 13 mph 50% 0 in 942 W/m2
10:49 80 °F 60 °F 30.11 in W 2 mph 13 mph 49% 0 in 941 W/m2
10:54 81 °F 60 °F 30.11 in NW 3 mph 6 mph 49% 0 in 938 W/m2
10:59 82 °F 57 °F 30.11 in SW 4 mph 10 mph 43% 0 in 936 W/m2
11:04 83 °F 52 °F 30.11 in E 5 mph 14 mph 34% 0 in 945 W/m2
11:09 84 °F 55 °F 30.1 in ESE 4 mph 17 mph 36% 0 in 945 W/m2
11:14 85 °F 47 °F 30.1 in SE 7 mph 17 mph 26% 0 in 946 W/m2
11:19 85 °F 47 °F 30.09 in ESE 7 mph 17 mph 27% 0 in 946 W/m2
11:24 85 °F 51 °F 30.09 in ESE 6 mph 18 mph 30% 0 in 946 W/m2
11:29 85 °F 51 °F 30.09 in SE 6 mph 18 mph 30% 0 in 946 W/m2
11:34 85 °F 50 °F 30.09 in SE 8 mph 17 mph 29% 0 in 945 W/m2
11:39 85 °F 50 °F 30.09 in SE 6 mph 17 mph 29% 0 in 944 W/m2
11:44 86 °F 49 °F 30.09 in E 4 mph 16 mph 28% 0 in 942 W/m2
11:49 86 °F 48 °F 30.08 in SE 6 mph 14 mph 26% 0 in 941 W/m2
11:54 86 °F 51 °F 30.08 in ESE 4 mph 14 mph 30% 0 in 938 W/m2
11:59 86 °F 48 °F 30.08 in ESE 6 mph 16 mph 26% 0 in 936 W/m2
12:04 86 °F 48 °F 30.08 in SE 6 mph 16 mph 26% 0 in 945 W/m2
12:09 86 °F 48 °F 30.08 in SE 6 mph 20 mph 26% 0 in 945 W/m2
12:14 86 °F 50 °F 30.08 in SE 7 mph 18 mph 29% 0 in 946 W/m2
12:19 87 °F 49 °F 30.08 in SE 4 mph 18 mph 27% 0 in 946 W/m2
12:24 87 °F 48 °F 30.08 in SE 6 mph 14 mph 26% 0 in 946 W/m2
12:29 87 °F 48 °F 30.08 in SE 6 mph 16 mph 26% 0 in 946 W/m2
12:34 87 °F 50 °F 30.07 in SE 5 mph 17 mph 28% 0 in 945 W/m2
12:39 87 °F 49 °F 30.07 in ESE 6 mph 17 mph 27% 0 in 944 W/m2
12:44 88 °F 50 °F 30.07 in SE 5 mph 15 mph 27% 0 in 942 W/m2
12:49 87 °F 49 °F 30.07 in ESE 6 mph 14 mph 27% 0 in 941 W/m2
12:54 87 °F 47 °F 30.07 in SE 7 mph 17 mph 25% 0 in 938 W/m2
North Bend WA Weather
Compliments of Weather Underground - 12.48 mb